This is the latest recevied weather packets stored in our database for station/object W5ADC. If no packets are shown the sender has not sent any weather packets the latest 10 day(s).
| Time | Temp. | Humidity | Pressure | Rain* | Wind** | Luminosity | Snow |
|---|---|---|---|---|---|---|---|
| 1778032210 | 22.78° C | 73% | 1002.9 hPa | 0 mm | - | 0 W/m² | - |
| 1778031908 | 22.78° C | 72% | 1002.7 hPa | 0 mm | - | 0 W/m² | - |
| 1778031604 | 22.78° C | 72% | 1002.5 hPa | 0 mm | - | 0 W/m² | - |
| 1778031302 | 22.78° C | 71% | 1002.5 hPa | 0 mm | - | 0 W/m² | - |
| 1778030997 | 22.78° C | 71% | 1002.5 hPa | 0 mm | - | 0 W/m² | - |
| 1778030694 | 22.78° C | 70% | 1002.5 hPa | 0 mm | - | 0 W/m² | - |
| 1778030391 | 22.78° C | 70% | 1002.7 hPa | 0 mm | - | 0 W/m² | - |
| 1778030088 | 22.78° C | 70% | 1002.7 hPa | 0 mm | - | 0 W/m² | - |
| 1778029785 | 23.33° C | 70% | 1002.3 hPa | 0 mm | - | 1 W/m² | - |
| 1778029484 | 23.33° C | 71% | 1002.2 hPa | 0 mm | - | 1 W/m² | - |
| 1778029180 | 23.33° C | 71% | 1002.1 hPa | 0 mm | - | 3 W/m² | - |
| 1778028878 | 23.33° C | 71% | 1001.6 hPa | 0 mm | - | 5 W/m² | - |
| 1778028573 | 23.89° C | 71% | 1001.6 hPa | 0 mm | - | 4 W/m² | - |
| 1778028271 | 23.89° C | 70% | 1001.9 hPa | 0 mm | - | 3 W/m² | - |
| 1778027967 | 23.89° C | 69% | 1001.7 hPa | 0 mm | - | 5 W/m² | - |
| 1778027663 | 23.89° C | 69% | 1001.8 hPa | 0 mm | - | 6 W/m² | - |
| 1778027360 | 24.44° C | 69% | 1001.6 hPa | 0 mm | - | 11 W/m² | - |
| 1778027056 | 25° C | 69% | 1001.8 hPa | 0 mm | - | 18 W/m² | - |
| 1778026751 | 25° C | 67% | 1001.8 hPa | 0 mm | - | 25 W/m² | - |
| 1778026449 | 25.56° C | 66% | 1001.8 hPa | 0 mm | - | 31 W/m² | - |
| 1778026146 | 25.56° C | 66% | 1001.5 hPa | 0 mm | - | 37 W/m² | - |
| 1778025844 | 25.56° C | 66% | 1001.5 hPa | 0 mm | - | 50 W/m² | - |
| 1778025540 | 25.56° C | 66% | 1001 hPa | 0 mm | - | 65 W/m² | - |
| 1778025238 | 26.11° C | 65% | 1001.1 hPa | 0 mm | - | 57 W/m² | - |
| 1778024934 | 26.67° C | 65% | 1000.8 hPa | 0 mm | - | 36 W/m² | - |
* Rain latest hour (hover to see other rain measurements)
** Current wind speed in m/s (hover to see current wind gust speed)